CW5478 Weather Reports


Display with metric or nautical units.
time (UTC)temp
F
wind
direction
speed
MPH
gust
MPH
rain 1hr
in
rain 24hr
in
rain mn
in
humidity
%
barometer
mb
20260509011303 57 174 10.0 16.0 0.00 0.00 0.00 46 1023.0
20260509010803 58 156 9.0 15.0 0.00 0.00 0.00 46 1022.8
20260509010303 58 144 11.0 18.0 0.00 0.00 0.00 45 1022.8
20260509005803 59 142 13.0 18.0 0.00 0.00 0.00 44 1022.8
20260509005306 59 135 16.0 21.0 0.00 0.00 0.00 43 1022.7
20260509004303 60 119 10.0 15.0 0.00 0.00 0.00 42 1022.7
20260509003302 59 135 9.0 15.0 0.00 0.00 0.00 41 1022.5
20260509002803 59 118 9.0 17.0 0.00 0.00 0.00 41 1022.3
20260509002306 59 143 12.0 17.0 0.00 0.00 0.00 42 1022.3
20260509001803 60 140 10.0 15.0 0.00 0.00 0.00 40 1022.3
20260509000802 61 154 7.0 24.0 0.00 0.00 0.00 37 1022.3
20260509000303 61 135 10.0 17.0 0.00 0.00 0.00 38 1022.3
20260508235803 62 342 5.0 12.0 0.00 0.00 0.00 36 1022.3
20260508235306 62 348 8.0 10.0 0.00 0.00 0.00 35 1022.3
20260508234802 63 0 5.0 9.0 0.00 0.00 0.00 30 1022.3
20260508234303 64 310 6.0 10.0 0.00 0.00 0.00 26 1022.1
20260508233803 64 315 7.0 13.0 0.00 0.00 0.00 25 1022.0
20260508233302 63 325 7.0 13.0 0.00 0.00 0.00 26 1022.3
20260508232306 63 262 5.0 10.0 0.00 0.00 0.00 26 1022.3
20260508231803 64 270 7.0 13.0 0.00 0.00 0.00 25 1022.0
20260508231303 65 262 3.0 7.0 0.00 0.00 0.00 24 1022.3
20260508230802 67 315 7.0 12.0 0.00 0.00 0.00 24 1022.0
20260508230302 67 224 6.0 14.0 0.00 0.00 0.00 25 1022.0
20260508225306 65 225 9.0 13.0 0.00 0.00 0.00 26 1022.3
20260508224302 65 270 14.0 20.0 0.00 0.00 0.00 25 1022.1
20260508223803 65 240 9.0 15.0 0.00 0.00 0.00 25 1022.3
20260508223302 65 223 13.0 22.0 0.00 0.00 0.00 25 1022.3
20260508222803 65 231 14.0 22.0 0.00 0.00 0.00 25 1022.0
20260508222306 65 226 13.0 21.0 0.00 0.00 0.00 25 1022.2
20260508221803 65 221 12.0 21.0 0.00 0.00 0.00 26 1022.3
20260508221303 65 233 12.0 17.0 0.00 0.00 0.00 26 1022.3
20260508220803 66 302 10.0 16.0 0.00 0.00 0.00 25 1022.3
20260508220302 67 269 7.0 14.0 0.00 0.00 0.00 25 1022.3
20260508215803 67 266 13.0 17.0 0.00 0.00 0.00 25 1022.3
20260508215306 68 270 3.0 9.0 0.00 0.00 0.00 24 1022.3
20260508214803 67 337 4.0 12.0 0.00 0.00 0.00 25 1022.3
20260508214303 67 2 9.0 13.0 0.00 0.00 0.00 25 1022.3
20260508213803 66 112 2.0 8.0 0.00 0.00 0.00 25 1022.3
20260508213303 65 225 6.0 13.0 0.00 0.00 0.00 26 1022.5
20260508212803 65 323 8.0 16.0 0.00 0.00 0.00 27 1022.3
20260508212306 67 298 12.0 18.0 0.00 0.00 0.00 26 1022.5
20260508211303 66 11 6.0 10.0 0.00 0.00 0.00 26 1022.3
20260508210803 65 85 2.0 15.0 0.00 0.00 0.00 26 1022.7
20260508210302 64 224 12.0 24.0 0.00 0.00 0.00 26 1022.7
20260508205803 64 313 10.0 29.0 0.00 0.00 0.00 27 1022.7
20260508205306 64 301 7.0 15.0 0.00 0.00 0.00 27 1022.7
20260508204802 64 256 12.0 20.0 0.00 0.00 0.00 28 1022.5
20260508204303 64 358 13.0 18.0 0.00 0.00 0.00 28 1022.7
20260508203803 64 311 13.0 20.0 0.00 0.00 0.00 28 1022.7
20260508202803 64 325 13.0 18.0 0.00 0.00 0.00 28 1022.8
20260508202306 63 328 10.0 20.0 0.00 0.00 0.00 29 1022.8
20260508201803 63 314 11.0 17.0 0.00 0.00 0.00 28 1023.0
20260508200803 64 0 10.0 21.0 0.00 0.00 0.00 29 1023.0
20260508200302 63 1 6.0 18.0 0.00 0.00 0.00 29 1023.0
20260508195803 62 331 10.0 17.0 0.00 0.00 0.00 30 1023.0
20260508195306 63 313 14.0 21.0 0.00 0.00 0.00 31 1023.0
20260508194803 63 290 13.0 25.0 0.00 0.00 0.00 31 1023.2
20260508194303 62 281 13.0 22.0 0.00 0.00 0.00 31 1023.2
20260508192803 61 225 9.0 17.0 0.00 0.00 0.00 30 1023.3
20260508192306 60 283 4.0 12.0 0.00 0.00 0.00 30 1023.3
20260508191802 60 294 6.0 14.0 0.00 0.00 0.00 31 1023.5
20260508190802 60 269 5.0 12.0 0.00 0.00 0.00 31 1023.3
20260508190303 60 277 5.0 23.0 0.00 0.00 0.00 32 1023.5
20260508185803 60 225 7.0 20.0 0.00 0.00 0.00 33 1023.5
20260508184802 60 299 7.0 20.0 0.00 0.00 0.00 33 1023.7
20260508184303 59 318 10.0 14.0 0.00 0.00 0.00 33 1023.7
20260508183803 59 270 12.0 17.0 0.00 0.00 0.00 33 1023.7
20260508182306 59 280 6.0 18.0 0.00 0.00 0.00 35 1024.0
20260508181803 59 277 9.0 14.0 0.00 0.00 0.00 34 1024.0
20260508181303 58 228 5.0 15.0 0.00 0.00 0.00 34 1024.0
20260508180803 58 285 9.0 15.0 0.00 0.00 0.00 34 1024.0
20260508180303 57 270 6.0 14.0 0.00 0.00 0.00 33 1024.0
20260508175803 57 270 11.0 17.0 0.00 0.00 0.00 33 1024.0
20260508175305 57 290 10.0 20.0 0.00 0.00 0.00 34 1024.0
20260508174803 58 293 12.0 17.0 0.00 0.00 0.00 34 1024.1
20260508174303 58 294 11.0 20.0 0.00 0.00 0.00 35 1024.0
20260508173304 57 271 7.0 16.0 0.00 0.00 0.00 34 1024.3
20260508172803 58 289 4.0 12.0 0.00 0.00 0.00 35 1024.3
20260508172306 58 324 6.0 10.0 0.00 0.00 0.00 34 1024.3
20260508171803 59 12 6.0 10.0 0.00 0.00 0.00 34 1024.3
20260508171302 58 346 7.0 13.0 0.00 0.00 0.00 35 1024.3
20260508170803 58 0 4.0 12.0 0.00 0.00 0.00 35 1024.3
20260508165803 57 54 2.0 8.0 0.00 0.00 0.00 37 1024.5
20260508165306 57 11 8.0 12.0 0.00 0.00 0.00 38 1024.3
20260508164803 57 0 7.0 13.0 0.00 0.00 0.00 38 1024.3
20260508164303 57 356 6.0 10.0 0.00 0.00 0.00 37 1024.3
20260508163803 57 10 8.0 15.0 0.00 0.00 0.00 37 1024.3
20260508163303 57 350 7.0 13.0 0.00 0.00 0.00 38 1024.3
20260508162802 57 1 5.0 10.0 0.00 0.00 0.00 38 1024.7
20260508162306 57 35 12.0 14.0 0.00 0.00 0.00 38 1024.6
20260508161803 56 25 7.0 13.0 0.00 0.00 0.00 35 1024.5
20260508161303 56 6 6.0 10.0 0.00 0.00 0.00 37 1024.5
20260508160804 56 25 7.0 12.0 0.00 0.00 0.00 39 1024.7
20260508160303 55 41 6.0 10.0 0.00 0.00 0.00 39 1024.5
20260508155802 55 37 6.0 12.0 0.00 0.00 0.00 39 1024.5
20260508155305 55 40 7.0 9.0 0.00 0.00 0.00 38 1024.7
20260508154803 55 334 6.0 10.0 0.00 0.00 0.00 39 1024.7
20260508154303 55 40 4.0 9.0 0.00 0.00 0.00 40 1024.5
20260508153804 54 4 5.0 8.0 0.00 0.00 0.00 41 1024.6
20260508153303 54 30 5.0 9.0 0.00 0.00 0.00 42 1024.7
20260508152803 53 49 5.0 9.0 0.00 0.00 0.00 43 1024.5
20260508151303 52 90 6.0 9.0 0.00 0.00 0.00 45 1024.5
20260508150803 52 45 7.0 9.0 0.00 0.00 0.00 45 1024.6
20260508145803 52 45 6.0 9.0 0.00 0.00 0.00 45 1024.3
20260508145306 52 45 6.0 8.0 0.00 0.00 0.00 45 1024.6
20260508144803 52 83 5.0 8.0 0.00 0.00 0.00 46 1024.6
20260508144304 52 77 5.0 8.0 0.00 0.00 0.00 47 1024.3
20260508143303 51 45 5.0 7.0 0.00 0.00 0.00 48 1024.6
20260508142802 51 27 6.0 9.0 0.00 0.00 0.00 48 1024.3
20260508142306 52 45 7.0 16.0 0.00 0.00 0.00 43 1024.6
20260508141803 52 306 9.0 15.0 0.00 0.00 0.00 38 1024.3
20260508141303 52 291 11.0 17.0 0.00 0.00 0.00 39 1024.3
20260508140803 52 299 13.0 17.0 0.00 0.00 0.00 39 1024.0
20260508140303 52 276 12.0 17.0 0.00 0.00 0.00 40 1024.0
20260508135803 51 272 10.0 18.0 0.00 0.00 0.00 41 1024.3
20260508135306 51 292 7.0 12.0 0.00 0.00 0.00 41 1024.3
20260508134803 51 282 6.0 16.0 0.00 0.00 0.00 40 1024.3
20260508134303 51 287 12.0 16.0 0.00 0.00 0.00 41 1024.3
20260508132803 50 270 8.0 15.0 0.00 0.00 0.00 41 1024.0
20260508132306 50 270 8.0 15.0 0.00 0.00 0.00 41 1024.2
20260508131803 50 270 9.0 14.0 0.00 0.00 0.00 43 1024.0
20260508131303 49 270 8.0 12.0 0.00 0.00 0.00 43 1024.0
20260508130804 49 270 9.0 14.0 0.00 0.00 0.00 44 1024.0
20260508130304 48 270 7.0 12.0 0.00 0.00 0.00 45 1024.0
20260508125803 48 269 9.0 12.0 0.00 0.00 0.00 46 1024.0
20260508125306 46 270 10.0 14.0 0.00 0.00 0.00 49 1024.0
20260508124304 45 247 10.0 12.0 0.00 0.00 0.00 51 1023.7
20260508123803 45 238 9.0 13.0 0.00 0.00 0.00 52 1024.0
20260508123303 44 225 10.0 13.0 0.00 0.00 0.00 53 1023.7
20260508122803 44 232 10.0 13.0 0.00 0.00 0.00 53 1023.7
20260508121803 42 227 10.0 13.0 0.00 0.00 0.00 55 1023.7
20260508120803 42 236 10.0 13.0 0.00 0.00 0.00 55 1023.3
20260508120303 42 229 10.0 12.0 0.00 0.00 0.00 56 1023.3
20260508115306 42 247 10.0 13.0 0.00 0.00 0.00 55 1023.3
20260508114303 43 226 10.0 13.0 0.00 0.00 0.00 54 1023.3
20260508113804 42 260 10.0 13.0 0.00 0.00 0.00 54 1023.3
20260508113303 43 225 10.0 13.0 0.00 0.00 0.00 53 1023.3
20260508112803 43 225 9.0 12.0 0.00 0.00 0.00 53 1023.3
20260508112306 43 247 10.0 12.0 0.00 0.00 0.00 53 1023.3
20260508111803 43 225 10.0 15.0 0.00 0.00 0.00 53 1023.3
20260508111304 42 242 10.0 14.0 0.00 0.00 0.00 54 1023.3
20260508110804 42 249 10.0 13.0 0.00 0.00 0.00 55 1023.3
20260508110303 42 225 9.0 12.0 0.00 0.00 0.00 55 1023.3
20260508105804 43 248 9.0 14.0 0.00 0.00 0.00 54 1023.3
20260508105306 43 247 10.0 14.0 0.00 0.00 0.00 53 1023.3
20260508104303 44 229 11.0 13.0 0.00 0.00 0.00 52 1023.3
20260508103303 44 240 11.0 14.0 0.00 0.00 0.00 52 1023.2
20260508102803 45 225 12.0 14.0 0.00 0.00 0.00 50 1023.3
20260508101803 45 270 12.0 16.0 0.00 0.00 0.00 49 1023.3
20260508101303 46 270 12.0 14.0 0.00 0.00 0.00 48 1023.3
20260508100803 46 268 10.0 16.0 0.00 0.00 0.00 47 1023.3
20260508100304 46 269 12.0 18.0 0.00 0.00 0.00 47 1023.3
20260508095803 46 267 10.0 17.0 0.00 0.00 0.00 47 1023.3
20260508095306 47 259 12.0 18.0 0.00 0.00 0.00 46 1023.3
20260508094304 48 263 15.0 21.0 0.00 0.00 0.00 44 1023.3
20260508093803 48 270 14.0 21.0 0.00 0.00 0.00 44 1023.2
20260508093304 48 269 12.0 21.0 0.00 0.00 0.00 44 1023.3
20260508092803 47 274 13.0 22.0 0.00 0.00 0.00 44 1023.1
20260508092312 47 290 9.0 22.0 0.00 0.00 0.00 44 1023.1
20260508091803 47 276 6.0 12.0 0.00 0.00 0.00 44 1023.3
20260508091304 47 295 11.0 17.0 0.00 0.00 0.00 44 1023.3
20260508090803 48 277 7.0 14.0 0.00 0.00 0.00 43 1023.3
20260508090303 48 270 10.0 14.0 0.00 0.00 0.00 42 1023.3
20260508085804 48 270 14.0 22.0 0.00 0.00 0.00 43 1023.3
20260508085306 48 269 14.0 22.0 0.00 0.00 0.00 44 1023.1
20260508084803 48 270 21.0 29.0 0.00 0.00 0.00 45 1023.0
20260508084303 48 270 13.0 18.0 0.00 0.00 0.00 45 1023.0
20260508083803 48 270 12.0 17.0 0.00 0.00 0.00 44 1023.3
20260508083303 48 273 15.0 21.0 0.00 0.00 0.00 44 1023.3
20260508082803 48 275 9.0 13.0 0.00 0.00 0.00 44 1023.7
20260508082306 49 288 12.0 17.0 0.00 0.00 0.00 43 1023.7
20260508081803 49 274 13.0 20.0 0.00 0.00 0.00 42 1023.7
20260508081304 48 270 12.0 17.0 0.00 0.00 0.00 42 1023.4
20260508080804 48 271 11.0 17.0 0.00 0.00 0.00 42 1023.4
20260508080304 48 276 9.0 16.0 0.00 0.00 0.00 42 1023.7
20260508075804 49 277 13.0 20.0 0.00 0.00 0.00 41 1023.7
20260508075308 49 270 14.0 25.0 0.00 0.00 0.00 41 1023.6
20260508074803 49 267 17.0 26.0 0.00 0.00 0.00 41 1023.4
20260508074303 49 267 15.0 24.0 0.00 0.00 0.00 41 1023.3
20260508073803 49 269 20.0 25.0 0.00 0.00 0.00 41 1023.3
20260508073303 49 266 17.0 26.0 0.00 0.00 0.00 42 1023.3
20260508072803 48 269 7.0 14.0 0.00 0.00 0.00 43 1023.7
20260508072307 48 269 9.0 13.0 0.00 0.00 0.00 44 1023.9
20260508071803 47 292 9.0 13.0 0.00 0.00 0.00 45 1023.7
20260508071303 47 273 7.0 8.0 0.00 0.00 0.00 46 1024.0
20260508070803 47 284 7.0 8.0 0.00 0.00 0.00 46 1024.0
20260508070303 47 270 4.0 6.0 0.00 0.00 0.00 46 1024.0
20260508065803 47 270 6.0 6.0 0.00 0.00 0.00 45 1024.0
20260508065306 47 309 4.0 7.0 0.00 0.00 0.00 46 1024.0
20260508064803 46 277 5.0 7.0 0.00 0.00 0.00 49 1024.0
20260508064304 45 270 7.0 10.0 0.00 0.00 0.00 51 1024.0
20260508063804 46 270 7.0 8.0 0.00 0.00 0.00 51 1024.1
20260508063303 47 315 5.0 7.0 0.00 0.00 0.00 48 1024.3
20260508062803 48 327 6.0 10.0 0.00 0.00 0.00 45 1024.3
20260508061803 48 264 2.0 8.0 0.00 0.00 0.00 45 1024.0
20260508061303 47 270 3.0 6.0 0.00 0.00 0.00 46 1024.0
20260508060304 47 247 4.0 6.0 0.00 0.00 0.00 46 1023.7
20260508055803 47 90 1.0 2.0 0.00 0.00 0.00 45 1023.9
20260508055306 47 90 2.0 6.0 0.00 0.00 0.00 45 1023.9
20260508054804 47 225 1.0 5.0 0.00 0.00 0.00 46 1024.0
20260508054303 47 90 2.0 6.0 0.00 0.00 0.00 45 1024.0
20260508053803 47 270 2.0 3.0 0.00 0.00 0.00 44 1023.7
20260508053304 47 225 3.0 5.0 0.00 0.00 0.00 44 1024.0
20260508052803 47 217 5.0 7.0 0.00 0.00 0.00 46 1023.7
20260508052306 47 270 6.0 9.0 0.00 0.00 0.00 46 1024.0
20260508051303 48 225 7.0 8.0 0.00 0.00 0.00 46 1024.0
20260508050803 48 52 6.0 10.0 0.00 0.00 0.00 41 1024.0
20260508050303 48 104 1.0 5.0 0.00 0.00 0.00 40 1024.0
20260508045803 48 178 3.0 6.0 0.00 0.00 0.00 41 1024.0
20260508044803 45 225 5.0 8.0 0.00 0.00 0.00 49 1024.0
20260508044303 44 225 7.0 9.0 0.00 0.00 0.00 52 1024.0
20260508043803 45 225 8.0 9.0 0.00 0.00 0.00 52 1024.0
20260508043304 45 225 7.0 9.0 0.00 0.00 0.00 51 1024.0
20260508042803 45 225 6.0 8.0 0.00 0.00 0.00 53 1024.0
20260508042307 45 225 5.0 6.0 0.00 0.00 0.00 54 1024.0
20260508041803 46 157 3.0 5.0 0.00 0.00 0.00 53 1024.0
20260508041303 47 199 1.0 3.0 0.00 0.00 0.00 50 1024.0
20260508040803 48 135 3.0 5.0 0.00 0.00 0.00 45 1024.0
20260508040304 48 171 1.0 1.0 0.00 0.00 0.00 43 1024.0
20260508035804 48 337 1.0 8.0 0.00 0.00 0.00 44 1024.0
20260508035306 48 270 5.0 9.0 0.00 0.00 0.00 44 1024.0
20260508034804 49 349 3.0 6.0 0.00 0.00 0.00 43 1024.0
20260508034303 50 350 6.0 10.0 0.00 0.00 0.00 40 1024.0
20260508033803 51 322 6.0 9.0 0.00 0.00 0.00 38 1024.0
20260508032804 50 263 5.0 13.0 0.00 0.00 0.00 39 1023.9
20260508032306 48 220 6.0 14.0 0.00 0.00 0.00 42 1023.7
20260508031803 47 147 7.0 9.0 0.00 0.00 0.00 44 1023.4
20260508031304 47 225 5.0 9.0 0.00 0.00 0.00 48 1023.7
20260508030804 47 209 9.0 12.0 0.00 0.00 0.00 48 1023.7
20260508030303 48 225 7.0 10.0 0.00 0.00 0.00 44 1023.7
20260508025306 48 45 4.0 6.0 0.00 0.00 0.00 43 1023.4
20260508024304 49 0 5.0 5.0 0.00 0.00 0.00 43 1023.4
20260508023803 49 315 3.0 5.0 0.00 0.00 0.00 42 1023.6
20260508023303 50 270 4.0 7.0 0.00 0.00 0.00 41 1023.7
20260508022803 49 286 9.0 13.0 0.00 0.00 0.00 42 1023.3
20260508022306 48 247 7.0 8.0 0.00 0.00 0.00 45 1023.3
20260508021803 47 270 7.0 9.0 0.00 0.00 0.00 46 1023.3
20260508021303 48 270 8.0 9.0 0.00 0.00 0.00 45 1023.3
20260508020803 49 261 7.0 10.0 0.00 0.00 0.00 43 1023.3
20260508020304 49 270 7.0 10.0 0.00 0.00 0.00 44 1023.3
20260508015306 48 225 6.0 8.0 0.00 0.00 0.00 45 1023.3
20260508014804 49 270 6.0 8.0 0.00 0.00 0.00 45 1023.3
20260508014303 49 247 7.0 8.0 0.00 0.00 0.00 45 1023.3
20260508013303 49 246 4.0 6.0 0.00 0.00 0.00 45 1023.3
20260508012803 50 225 4.0 6.0 0.00 0.00 0.00 45 1023.3
20260508012307 51 247 3.0 5.0 0.00 0.00 0.00 45 1023.3
20260508011804 50 315 2.0 2.0 0.00 0.00 0.00 44 1023.0